CDT,Max TemperatureF,Mean TemperatureF,Min TemperatureF,Max Dew PointF,MeanDew PointF,Min DewpointF,Max Humidity, Mean Humidity, Min Humidity, Max Sea Level PressureIn, Mean Sea Level PressureIn, Min Sea Level PressureIn, Max VisibilityMiles, Mean VisibilityMiles, Min VisibilityMiles, Max Wind SpeedMPH, Mean Wind SpeedMPH, Max Gust SpeedMPH,PrecipitationIn, CloudCover, Events, WindDirDegrees
2012-10-1,77,69,61,61,58,55,97,72,47,29.81,29.69,29.63,10,8,2,22,9,26,T,7,Rain,318
2012-10-2,81,70,59,64,58,51,93,65,36,29.98,29.88,29.80,10,10,8,8,1,10,0.00,0,,273
2012-10-3,85,74,62,67,61,54,93,64,34,30.10,30.03,29.97,10,9,5,10,2,20,0.00,1,,184
2012-10-4,86,75,64,70,65,61,100,72,44,30.20,30.15,30.10,10,7,2,8,2,13,0.00,0,,79
2012-10-5,87,76,65,72,66,61,100,72,44,30.15,30.10,30.00,10,6,0,8,1,13,0.00,2,Fog,127
2012-10-6,84,71,57,69,64,53,100,79,58,30.07,30.02,29.97,10,6,0,18,7,22,0.00,1,Fog,11
2012-10-7,69,62,54,52,50,48,86,70,53,30.16,30.12,30.05,10,10,10,18,12,24,0.00,4,,14
2012-10-8,70,61,52,52,49,46,83,64,45,30.20,30.14,30.10,10,10,10,16,8,21,0.00,3,,18
2012-10-9,79,64,49,62,54,47,97,72,46,30.16,30.09,30.01,10,10,8,8,2,16,0.00,0,,39
2012-10-10,87,73,59,69,64,57,97,74,51,30.17,30.11,30.06,10,9,6,9,1,13,0.00,3,,55
2012-10-11,86,75,64,67,65,62,100,73,45,30.23,30.17,30.14,10,6,0,8,2,13,0.00,2,Fog,153
2012-10-12,85,73,61,67,64,59,100,78,55,30.24,30.19,30.16,10,6,0,7,1,14,0.00,1,Fog,105
2012-10-13,87,78,69,70,68,65,97,74,51,30.19,30.15,30.07,10,5,0,22,5,29,0.00,4,Fog,166
2012-10-14,87,80,72,73,70,67,93,74,55,30.12,30.05,29.99,10,8,4,16,5,20,0.00,1,,189
2012-10-15,83,72,60,72,63,54,97,67,37,30.06,30.00,29.95,10,9,7,15,6,21,0.00,2,,7
2012-10-16,81,68,55,64,58,54,93,71,48,29.99,29.91,29.84,10,10,10,8,2,25,T,0,,77
2012-10-17,86,75,63,73,67,62,100,79,58,29.85,29.78,29.70,10,9,1,17,6,24,0.01,4,Rain,177
2012-10-18,83,72,60,74,62,39,94,59,23,29.94,29.81,29.72,10,9,2,20,8,25,0.33,4,Rain-Thunderstorm,352
2012-10-19,81,67,53,58,44,31,93,55,17,30.00,29.94,29.90,10,10,10,15,3,18,0.00,0,,301
2012-10-20,83,66,49,59,49,37,100,60,20,30.01,29.97,29.92,10,7,0,9,2,15,0.00,0,Fog,178
2012-10-21,85,71,56,63,57,52,93,65,36,30.08,30.03,29.97,10,10,10,14,3,21,0.00,0,,171
2012-10-22,84,72,59,65,61,58,97,71,44,30.12,30.06,30.02,10,10,9,10,3,14,0.00,0,,142
2012-10-23,86,74,62,66,63,61,100,71,42,30.07,30.02,29.98,10,8,2,8,2,12,0.00,1,,107
2012-10-24,87,76,65,69,65,62,100,73,45,30.07,30.01,29.96,10,5,0,9,2,13,0.00,3,Fog,104
2012-10-25,86,76,65,67,64,58,100,70,40,30.00,29.95,29.91,10,7,1,9,2,,0.00,1,,163
2012-10-26,85,75,64,70,60,46,100,78,55,30.10,30.00,29.94,10,8,2,23,5,29,0.00,5,,1
2012-10-27,64,56,48,46,41,37,77,59,40,30.12,30.07,30.01,10,10,10,22,13,29,0.00,2,,1
2012-10-28,66,55,43,36,33,28,70,48,26,30.19,30.14,30.09,10,10,10,23,11,32,0.00,0,,355
2012-10-29,66,54,42,38,34,28,76,50,24,30.26,30.19,30.12,10,10,10,21,7,25,0.00,0,,6
2012-10-30,71,56,40,49,37,28,92,57,22,30.15,30.09,30.02,10,10,9,12,3,23,0.00,0,,256
2012-10-31,80,65,49,61,53,47,93,65,36,30.07,30.02,29.96,10,8,2,15,6,20,0.00,0,,240